CAPE
0 0 0 0 0 0 0 0 0 0 0 0 0 0 0 0 0 0 0 0 0 0 0 0 0 0 0 0 0 0 0 0 3 6 8 10 14 16
0 0 0 0 0 0 0 0 0 0 0 0 0 0 0 0 0 0 0 0 0 0 0 0 0 0 0 0 0 0 0 0 1 2 3 8 11 14
0 0 0 0 3 0 0 0 0 0 0 0 0 0 0 0 0 3 12 5 0 0 0 0 0 0 0 0 0 0 0 0 0 0 1 5 10 15
0 0 0 4 2 1 5 1 0 0 2 0 0 0 3 13 19 5 2 1 2 0 0 0 0 0 0 0 0 0 0 0 0 0 1 5 8 9
0 0 0 0 0 0 0 0 0 3 6 5 0 0 0 5 0 0 0 7 5 0 0 3 0 0 0 0 0 0 0 0 0 0 0 0 1 5
0 0 0 0 0 0 0 0 0 0 0 0 0 0 0 0 0 0 0 0 0 0 0 0 0 0 0 1 0 0 0 0 0 0 0 0 0 0
0 0 0 0 0 0 0 0 0 0 0 0 0 0 0 0 0 0 1 0 0 0 0 0 0 0 0 1 0 2 2 2 2 0 0 0 0 1
0 0 0 0 0 0 0 0 0 0 0 7 6 3 0 0 0 0 3 0 0 0 0 0 0 0 0 0 0 1 0 0 0 0 0 0 0 0
0 0 0 0 0 0 0 0 0 0 0 1 5 0 0 0 0 0 0 0 0 0 0 0 0 0 0 0 4 4 0 1 0 0 0 0 0 0
0 0 0 0 0 0 0 0 0 0 0 5 0 0 1 0 0 0 0 0 0 0 0 0 0 0 0 0 0 0 0 1 5 0 0 0 0 0
0 0 0 0 0 0 0 0 0 0 0 0 10 12 1 0 0 0 0 0 0 0 0 0 0 0 0 0 0 0 1 2 3 1 1 0 0 0
0 0 0 0 0 0 0 0 0 0 0 0 0 0 0 0 0 0 0 0 0 0 0 0 0 0 0 0 0 0 0 0 0 4 7 13 1 1
0 0 0 0 0 0 0 0 0 0 0 0 0 2 3 2 0 0 0 0 0 0 0 0 0 0 0 0 0 0 0 0 0 0 1 0 0 0
0 0 0 0 0 0 0 0 0 0 0 0 1 1 0 2 0 0 0 0 0 0 0 0 0 0 0 0 0 0 0 0 0 0 0 0 0 0
0 0 0 0 0 0 0 0 0 0 0 0 4 0 0 0 2 0 0 0 0 0 0 0 0 0 0 0 0 0 0 0 0 0 0 0 0 0
0 0 0 0 0 0 0 0 0 1 0 1 0 0 0 4 2 0 0 0 0 0 0 0 0 0 0 0 0 0 0 0 0 0 0 0 0 1
0 0 0 0 0 0 0 0 0 0 0 0 0 0 0 0 0 1 0 0 1 0 0 0 0 0 0 0 0 0 0 0 0 0 1 0 0 0
0 0 0 0 0 0 1 0 0 0 0 0 0 0 0 0 0 0 2 0 0 0 0 0 0 1 0 0 0 0 0 0 0 0 1 0 0 0
0 0 0 0 0 0 1 1 1 1 0 0 0 0 0 0 0 0 0 0 0 0 0 0 0 0 0 0 0 4 0 0 0 0 0 0 0 0
0 0 0 0 0 0 0 0 0 0 0 0 0 0 0 1 0 0 0 0 0 0 0 0 0 0 0 0 0 0 0 0 0 0 0 0 0 0
0 0 0 0 0 0 1 2 1 0 0 0 0 0 0 0 1 0 1 0 0 0 0 0 0 0 0 0 0 0 0 0 0 0 0 0 0 0
0 0 0 0 0 0 1 0 1 1 0 0 0 0 0 0 0 0 1 1 0 0 0 0 0 0 0 0 0 0 0 0 0 0 0 0 0 0
0 0 0 0 0 0 0 0 0 0 0 0 0 0 0 0 0 0 0 0 0 0 0 0 0 0 0 0 0 0 0 0 0 0 0 0 0 0
CIN
0 0 0 0 0 0 0 0 0 0 0 0 0 0 0 0 0 0 0 0 0 0 0 0 0 0 0 0 0 0 0 0 -1 -1 -1 -2 -1 -2
0 0 0 0 0 0 0 0 0 0 0 0 0 0 0 0 0 0 -23 0 0 0 0 0 0 0 0 0 0 0 0 0 -1 0 -1 -1 -1 -1
0 0 0 0 -5 -4 0 0 0 0 0 0 0 0 0 0 0 -14 -23 -27 -16 0 -5 0 0 0 0 0 0 0 0 0 0 0 -1 -1 -1 -1
0 0 0 -3 -3 -5 -6 -5 0 0 -5 0 0 -3 -7 -6 -9 -21 -21 -27 -38 0 0 0 0 0 0 0 0 0 0 0 0 0 -1 -1 -1 -1
0 0 0 0 0 0 0 0 0 -3 -5 -5 0 0 -5 -10 0 0 0 -33 -28 0 -3 -7 0 0 0 0 0 0 0 0 0 0 0 0 0 0
0 0 0 0 0 0 0 0 0 0 0 0 0 0 0 0 0 0 0 0 0 0 0 0 0 0 0 -7 0 0 0 0 0 0 0 0 0 0
0 0 0 0 0 0 0 0 0 0 0 0 0 0 0 0 0 0 -5 0 0 0 0 0 0 0 0 -2 -1 -4 -3 -6 -14 -4 0 0 0 0
0 0 0 0 0 0 0 0 0 0 0 -12 -7 -17 0 0 0 0 -18 0 0 0 0 0 0 0 0 0 0 -5 0 0 0 0 0 0 0 0
0 0 0 0 0 0 0 0 0 0 0 -13 -16 0 0 0 0 0 0 0 0 0 0 0 0 0 0 0 -1 -4 0 -2 -2 0 0 0 0 0
0 0 0 0 0 0 0 0 0 0 0 -13 -11 0 -34 -19 0 0 0 0 0 0 0 0 0 0 0 0 -1 0 0 -3 -5 0 0 0 0 0
0 0 0 0 0 0 0 0 0 0 0 0 -2 -8 -4 0 0 0 0 0 0 0 0 0 0 0 -2 0 0 0 -4 -7 -2 -5 -5 0 0 0
0 0 0 0 0 0 0 0 0 0 0 0 0 0 0 0 0 0 0 0 0 0 0 0 0 0 0 0 0 0 0 0 0 -4 -1 -2 -4 -4
0 0 0 0 0 0 0 0 0 0 0 0 0 0 0 -1 0 0 0 0 0 0 0 0 0 0 0 0 0 0 0 0 0 0 -2 -3 0 0
0 0 0 0 0 0 0 0 0 0 0 0 -2 0 0 -1 0 0 0 0 0 0 0 0 0 0 0 0 0 0 0 0 0 0 0 0 -1 0
0 0 0 0 0 0 0 0 0 0 0 0 0 0 0 0 -3 0 0 0 0 0 0 0 0 0 0 0 0 0 0 0 0 0 0 0 0 -4
0 0 0 0 -4 0 0 0 0 0 0 -3 0 0 0 -1 -1 -1 0 0 0 0 0 0 0 0 0 0 0 0 0 0 0 0 0 0 0 -4
0 0 0 -1 0 0 0 -1 0 0 0 0 0 0 0 -3 0 -4 -6 -3 -1 0 0 0 0 0 0 0 0 0 0 0 0 0 -2 0 0 0
0 0 -2 0 0 0 -3 -4 0 0 0 0 0 0 0 0 -2 -2 -5 0 0 0 0 0 0 -3 -5 0 -9 0 0 0 0 0 0 0 0 0
0 0 0 0 0 0 -3 -4 -2 -2 0 0 0 0 0 0 0 0 0 -3 0 0 0 0 0 0 -3 0 0 -8 0 0 0 0 0 0 0 0
0 0 0 0 0 0 0 -6 -5 -3 -2 0 0 0 0 0 0 -1 0 0 0 0 0 0 0 0 -5 0 0 0 0 0 0 0 0 0 0 0
0 0 0 0 0 -1 -5 -4 -5 -5 0 0 0 0 0 0 0 0 -2 0 0 0 0 0 0 0 0 0 0 0 0 0 0 0 -1 0 0 0
0 0 0 0 0 -7 -6 -5 -6 -6 -1 0 0 0 0 0 0 0 0 -4 0 0 0 0 0 0 0 0 0 0 0 0 0 0 0 0 0 0
0 0 -6 0 0 0 0 0 -7 -6 -6 0 0 0 0 0 0 0 0 0 0 0 0 0 0 0 0 0 0 0 0 0 0 0 0 0 0 0
Wind_Speed
16 21 26 25 26 25 25 27 32 38 37 32 32 29 31 29 26 25 26 27 27 27 28 29 30 34 35 35 35 34 33 33 34 36 37 38 39 40
21 25 28 28 27 26 26 27 27 32 39 33 33 30 29 30 29 28 27 28 27 28 28 28 32 31 31 32 32 33 32 33 34 36 38 39 41 42
23 27 29 27 27 27 27 27 28 30 36 37 33 32 33 34 33 31 27 29 28 28 29 29 28 27 29 28 29 31 31 31 32 33 35 37 39 41
24 27 28 27 28 28 27 28 28 29 34 39 38 37 35 33 32 32 32 31 31 29 27 27 24 24 23 24 27 27 26 27 28 31 34 36 38 39
26 28 28 28 29 29 29 30 30 31 33 37 41 38 38 33 35 36 36 34 30 25 26 24 21 21 22 23 23 23 22 22 26 28 31 33 34 35
25 26 27 28 29 30 30 31 32 35 36 38 39 40 39 38 37 38 38 33 29 24 24 26 25 25 25 20 21 20 18 21 23 26 28 31 30 31
27 28 27 28 29 31 33 34 35 36 37 38 39 40 39 38 38 36 34 31 25 21 24 23 26 26 25 26 29 32 26 23 21 23 28 29 29 29
28 28 29 32 33 33 34 33 33 37 39 38 40 40 38 36 34 34 31 26 29 23 26 27 26 28 28 31 32 27 27 24 24 26 27 27 27 29
28 30 32 32 34 36 37 38 37 36 36 37 38 37 36 33 31 31 27 25 25 25 28 29 29 29 30 31 29 28 30 30 23 23 24 22 26 29
29 32 35 37 37 39 41 43 43 41 39 36 35 35 32 29 25 25 24 22 22 24 25 29 31 26 28 25 27 30 31 29 26 21 21 20 28 33
33 35 35 36 37 40 43 44 44 42 38 39 37 33 28 26 20 22 22 22 25 26 23 22 24 22 27 27 26 27 24 26 27 25 21 20 31 37
34 35 36 37 39 39 41 42 44 43 42 39 35 32 29 23 17 17 18 18 20 24 21 19 24 24 27 26 23 29 32 33 34 34 30 29 31 32
37 38 37 38 41 41 42 41 41 42 40 37 35 31 26 21 16 15 13 13 15 17 19 21 24 24 25 32 28 31 33 34 32 31 26 29 32 33
38 38 39 42 44 43 42 40 40 38 35 34 32 27 22 20 16 15 14 12 13 15 18 18 23 22 26 30 34 30 29 32 35 33 25 27 29 31
38 40 42 43 43 41 40 41 40 36 33 32 30 24 21 19 15 14 13 12 13 13 14 17 20 23 22 24 27 29 35 31 31 26 30 30 27 27
39 40 41 40 39 41 42 41 39 39 30 30 26 22 19 17 15 14 13 13 14 13 13 15 17 18 20 18 18 25 24 28 29 27 27 27 28 23
42 40 40 39 43 43 42 40 38 37 37 31 23 21 19 17 16 14 13 14 14 13 14 16 16 10 11 12 17 16 17 26 24 21 27 25 25 28
40 41 40 41 42 41 41 40 38 37 35 35 36 22 18 19 19 19 17 15 13 13 14 16 21 24 16 12 4 8 21 22 18 22 24 28 28 27
38 39 40 40 40 39 40 40 40 37 36 33 32 29 29 19 18 19 18 15 14 14 13 17 20 23 24 27 24 15 20 24 28 28 27 24 27 31
38 39 40 39 40 39 39 38 38 37 35 34 32 32 33 35 26 21 17 17 15 14 14 16 18 20 19 20 21 22 17 21 18 14 25 24 28 22
38 38 37 39 38 37 37 36 36 35 34 33 33 33 33 33 34 25 22 14 12 15 15 16 19 17 17 20 25 27 25 7 4 8 16 19 25 21
37 38 37 37 37 36 35 34 34 33 33 33 32 33 32 32 31 31 31 15 13 15 16 19 20 18 18 20 25 28 27 16 12 5 6 6 17 20
38 38 36 36 35 35 34 33 33 32 32 32 33 33 33 33 33 32 30 24 16 15 15 18 21 21 21 21 25 28 26 24 19 10 5 6 8 8
Wind_Direction
317 321 321 326 326 328 328 329 327 325 325 329 328 331 330 328 326 321 317 317 317 315 316 318 319 321 321 321 321 318 317 314 312 306 302 299 296 293
316 316 318 320 324 326 326 326 324 322 321 326 326 326 327 326 325 321 318 318 316 315 313 315 319 318 319 319 319 317 315 313 310 307 302 299 296 293
315 315 319 322 321 322 324 324 323 322 319 322 324 325 323 323 321 320 320 319 316 316 313 318 318 316 317 319 320 319 316 314 312 310 307 304 300 296
318 315 318 322 322 323 322 320 319 319 318 318 322 323 323 324 325 325 322 320 317 317 316 318 317 317 321 320 319 319 318 318 317 315 311 307 304 300
320 321 323 323 323 324 323 322 321 321 320 320 320 322 323 326 325 323 321 318 317 316 317 318 318 321 319 317 316 317 316 317 317 317 317 316 310 304
325 325 325 324 323 323 323 322 323 323 323 322 322 323 324 324 322 320 319 319 318 319 319 320 324 324 321 317 315 315 311 314 316 318 317 317 316 310
327 327 326 326 325 323 322 321 319 318 318 317 317 319 320 323 323 323 320 319 315 319 318 320 322 324 327 322 318 316 321 321 319 319 319 318 316 312
326 326 326 326 325 324 324 323 321 319 317 316 316 318 319 320 323 325 322 322 320 324 320 320 325 322 321 316 315 319 320 323 323 321 319 318 317 313
326 326 326 326 326 325 325 326 326 323 319 316 313 314 314 316 319 321 319 317 320 324 324 321 321 318 317 313 314 317 317 320 323 325 323 321 318 311
327 327 326 326 327 327 327 325 324 324 323 321 315 312 311 312 312 322 322 319 321 324 325 318 319 320 317 317 317 316 318 320 326 328 327 318 312 303
327 326 327 328 328 328 326 325 325 325 326 322 319 316 309 304 303 313 312 313 316 320 326 321 322 323 317 315 319 321 326 326 326 327 328 321 304 290
329 329 328 328 328 329 327 327 325 326 327 327 325 321 319 311 296 302 305 305 313 324 327 323 322 324 319 318 324 318 316 318 316 314 321 314 303 300
328 328 329 329 328 328 327 325 323 324 323 324 325 323 320 313 298 299 296 298 310 315 329 327 320 321 316 309 318 317 315 314 318 320 326 314 299 295
329 329 329 329 328 328 327 325 325 326 326 326 326 323 321 316 306 301 297 291 301 308 320 322 320 320 316 312 308 320 322 318 310 316 327 315 303 298
330 329 329 329 330 331 331 331 331 329 327 326 325 323 321 319 311 306 302 295 301 305 312 312 314 316 317 316 317 319 312 321 321 328 317 304 307 315
331 330 330 330 332 333 332 334 335 336 326 327 326 324 324 324 319 315 314 313 313 311 311 308 312 316 317 321 325 324 332 325 327 331 320 307 309 320
329 330 330 332 332 333 334 335 335 336 340 334 323 321 321 321 318 316 316 319 316 320 322 315 313 311 314 319 323 331 337 329 334 337 313 322 319 309
329 329 330 331 332 333 333 334 335 334 333 332 336 318 315 314 312 312 313 315 315 319 322 318 315 306 320 324 279 327 332 333 344 335 321 312 310 312
328 329 330 331 333 333 333 334 333 334 333 330 329 327 328 312 311 309 309 311 312 316 320 317 313 303 304 304 317 338 334 330 319 315 305 321 313 298
330 330 330 332 332 332 333 333 333 334 333 331 327 319 311 316 313 308 304 309 311 314 318 315 311 305 311 315 322 323 342 336 348 357 311 323 301 267
330 330 331 331 331 332 332 332 333 334 334 332 327 320 312 308 305 308 307 304 306 310 315 309 304 314 317 319 311 309 312 358 20 19 348 343 317 341
330 329 330 330 331 331 332 333 333 334 334 332 326 316 313 306 301 300 300 304 302 305 310 303 300 306 310 315 306 294 296 344 10 84 133 67 360 352
329 329 329 331 331 332 332 333 333 333 332 329 324 314 305 299 296 297 297 298 303 303 303 300 295 293 299 305 297 284 301 310 333 9 70 148 167 174